[Iaude] MPEC B39: 2024 BP [a=1.07,e=0.09,i=2.9,H=26.4]
    mpec at marsden.cfa.harvard.edu 
    mpec at marsden.cfa.harvard.edu
       
    Thu Jan 18 19:21:16 EST 2024
    
    
  
M.P.E.C. 2024-B39                              Issued 2024 January 19, 00:18 UT
     The Minor Planet Electronic Circulars contain information on unusual
         minor planets, routine data on comets and natural satellites,
         and occasional editorial announcements.  They are published
    on behalf of Division F of the International Astronomical Union by the
          Minor Planet Center, Smithsonian Astrophysical Observatory,
                          Cambridge, MA 02138, U.S.A.
			  
             Prepared using the Tamkin Foundation Computer Network
                              MPC at CFA.HARVARD.EDU
            URL https://www.minorplanetcenter.net/    ISSN 1523-6714
                                    2024 BP                                     
Observations:
     K24B00P* C2024 01 16.50060213 36 05.688+09 40 21.50         22.78GVEB039V00
     K24B00P  C2024 01 16.50611813 36 04.986+09 40 00.01         22.47GVEB039V00
     K24B00P  C2024 01 16.51161913 36 04.259+09 39 38.45         22.53GVEB039V00
     K24B00P  C2024 01 16.51711913 36 03.521+09 39 16.60         23.04GVEB039V00
     K24B00P mC2024 01 16.53808613 36 00.745+09 37 53.94               VEB039V00
     K24B00P mC2024 01 16.54020913 36 00.464+09 37 45.01         22.64GVEB039V00
     K24B00P mC2024 01 16.54232813 36 00.187+09 37 36.84         22.34GVEB039V00
     K24B00P mC2024 01 16.54444713 35 59.888+09 37 28.67         22.19GVEB039V00
     K24B00P mC2024 01 17.49942213 34 57.540+08 34 13.80         21.79GVEB039V00
     K24B00P mC2024 01 17.50284913 34 57.104+08 34 00.91         22.03GVEB039V00
     K24B00P mC2024 01 17.50627813 34 56.647+08 33 46.98         22.36GVEB039V00
     K24B00P mC2024 01 18.54167913 33 42.350+07 25 41.48         22.03GVEB039V00
     K24B00P mC2024 01 18.54406013 33 42.019+07 25 32.23         22.01GVEB039V00
     K24B00P mC2024 01 18.54644413 33 41.717+07 25 22.76         22.39GVEB039V00
     K24B00P mC2024 01 18.54883013 33 41.386+07 25 13.44         22.30GVEB039V00
Observer details:
V00 Kitt Peak-Bok.  Observer R. A. Mastaler.  Measurers M. J. Brucker, C. E.
    Woodward, D. Fay, J. B. Fazekas, D. C. Fuls, A. R. Gibbs, H. Groeller, J.
    K. Hogan, R. A. Kowalski, S. M. Larson, C. Lejoly, G. J. Leonard, R. A.
    Mastaler, R. S. McMillan, D. Rankin, R. L. Seaman, A. Serrano, F. C.
    Shelly, K. W. Wierzchos.  2.25-m reflector + 4x4K mosaic CCD.
Orbital elements:
2024 BP                                                  Earth MOID = 0.0153 AU
Epoch 2023 Sept. 13.0 TT = JDT 2460200.5                Veres                   
M 275.94282              (2000.0)            P               Q                  
n   0.88812956     Peri.  128.47851     +0.07639706     -0.99647639             
a   1.0718940      Node   317.10037     +0.89823591     +0.08385290             
e   0.0868389      Incl.    2.91490     +0.43282298     +0.00186724             
P   1.11           H   26.45          G   0.15           U   8                  
Residuals in seconds of arc
240116 V00  0.3-  0.1-    240116 V00  0.1-  0.3-    240117 V00  0.0   0.2-
240116 V00  0.1-  0.1+    240116 V00  0.0   0.0     240118 V00  0.0   0.0
240116 V00  0.1-  0.2+    240116 V00  0.3-  0.2+    240118 V00  0.2-  0.1+
240116 V00  0.3-  0.0     240117 V00  0.1-  0.2-    240118 V00  0.2+  0.0
240116 V00  0.2-  0.2+    240117 V00  0.1+  0.3+    240118 V00  0.0   0.0
Ephemeris:
2024 BP                  a,e,i = 1.07, 0.09, 3                   q = 0.9788
Date    TT    R. A. (2000) Decl.     Delta      r    Elong.  Phase     V
2023 12 20    14 11 59.0 +41 14 38   0.04699 0.9784    81.9    95.4    23.2
...
2024 01 04    13 49 26.6 +23 57 29   0.04704 0.9826    87.8    89.5    22.9
...
2024 01 12    13 40 56.0 +14 44 06   0.04750 0.9872    93.1    84.2    22.8
...
2024 01 18    13 34 19.6 +08 02 33   0.04805 0.9916    98.0    79.3    22.6
2024 01 19    13 33 09.7 +06 57 02   0.04817 0.9924    98.8    78.4    22.6
2024 01 20    13 31 58.5 +05 51 57   0.04829 0.9932    99.7    77.5    22.6
...
2024 01 26    13 24 16.8 -00 27 38   0.04914 0.9986   105.4    71.9    22.4
...
2024 02 03    13 11 38.2 -08 15 47   0.05060 1.0069   113.6    63.7    22.2
...
2024 02 18    12 35 39.8 -19 49 30   0.05502 1.0249   130.7    47.0    22.0
M. P. C. Staff               (C) Copyright 2024 MPC           M.P.E.C. 2024-B39
    
    
More information about the Iaude
mailing list